TimeMDT,TemperatureF,Dew PointF,Humidity,Sea Level PressureIn,VisibilityMPH,Wind Direction,Wind SpeedMPH,Gust SpeedMPH,PrecipitationIn,Events,Conditions,WindDirDegrees,DateUTC
12:55 AM,30.0,10.9,45,30.22,10.0,NW,6.9,-,N/A,,Clear,310,2013-04-24 06:55:00
1:55 AM,27.0,12.0,53,30.24,10.0,NNW,5.8,-,N/A,,Clear,340,2013-04-24 07:55:00
2:55 AM,28.0,12.0,51,30.24,10.0,SSE,5.8,-,N/A,,Clear,150,2013-04-24 08:55:00
3:55 AM,24.1,10.0,55,30.25,10.0,Calm,Calm,-,N/A,,Clear,0,2013-04-24 09:55:00
4:55 AM,27.0,10.9,51,30.26,10.0,SSE,3.5,-,N/A,,Clear,160,2013-04-24 10:55:00
5:55 AM,21.9,9.0,58,30.30,10.0,Calm,Calm,-,N/A,,Clear,0,2013-04-24 11:55:00
6:55 AM,23.0,12.0,63,30.32,10.0,Calm,Calm,-,N/A,,Clear,0,2013-04-24 12:55:00
7:55 AM,26.1,12.0,55,30.34,10.0,East,3.5,-,N/A,,Clear,80,2013-04-24 13:55:00
8:55 AM,30.9,12.9,47,30.34,10.0,Calm,Calm,-,N/A,,Clear,0,2013-04-24 14:55:00
9:55 AM,36.0,12.9,39,30.32,10.0,Calm,Calm,-,N/A,,Clear,0,2013-04-24 15:55:00
10:55 AM,41.0,12.9,32,30.29,10.0,ESE,4.6,-,N/A,,Clear,110,2013-04-24 16:55:00
11:55 AM,45.0,10.9,25,30.25,10.0,SE,9.2,-,N/A,,Clear,130,2013-04-24 17:55:00
12:55 PM,48.9,10.0,21,30.21,10.0,Variable,5.8,-,N/A,,Clear,0,2013-04-24 18:55:00
1:55 PM,53.1,10.9,19,30.18,10.0,ENE,6.9,-,N/A,,Clear,70,2013-04-24 19:55:00
2:55 PM,55.0,10.0,17,30.13,10.0,Variable,4.6,-,N/A,,Clear,0,2013-04-24 20:55:00
3:55 PM,55.9,9.0,15,30.12,10.0,Variable,4.6,-,N/A,,Clear,0,2013-04-24 21:55:00
4:55 PM,57.9,8.1,14,30.06,10.0,East,3.5,-,N/A,,Clear,100,2013-04-24 22:55:00
5:55 PM,60.1,8.1,13,30.05,10.0,Variable,4.6,-,N/A,,Clear,0,2013-04-24 23:55:00
6:55 PM,59.0,3.0,11,30.04,10.0,WSW,11.5,-,N/A,,Clear,240,2013-04-25 00:55:00
7:55 PM,55.0,1.9,12,30.04,10.0,West,13.8,-,N/A,,Clear,260,2013-04-25 01:55:00
8:55 PM,51.1,5.0,15,30.05,10.0,West,8.1,-,N/A,,Clear,260,2013-04-25 02:55:00
9:55 PM,43.0,7.0,23,30.07,10.0,WSW,4.6,-,N/A,,Clear,240,2013-04-25 03:55:00
10:55 PM,43.0,8.1,24,30.04,10.0,SSE,6.9,-,N/A,,Clear,160,2013-04-25 04:55:00
11:55 PM,37.0,9.0,31,30.04,10.0,North,-9999.0,-,N/A,,Clear,0,2013-04-25 05:55:00